Time,TemperatureF,DewpointF,PressureIn,WindDirection,WindDirectionDegrees,WindSpeedMPH,WindSpeedGustMPH,Humidity,HourlyPrecipIn,Conditions,Clouds,dailyrainin,SoftwareType,DateUTC
2013-10-09 00:12:00,32.0,31.5,30.01,ENE,67,1.1,-999.0,98,-99.99,,,0.00,Acu-Link.com,2013-10-09 07:12:00,
2013-10-09 00:27:00,32.0,31.5,30.01,East,90,1.1,-999.0,98,-99.99,,,0.00,Acu-Link.com,2013-10-09 07:27:00,
2013-10-09 00:42:00,32.0,31.5,30.01,East,90,1.1,-999.0,98,-99.99,,,0.00,Acu-Link.com,2013-10-09 07:42:00,
2013-10-09 00:57:00,30.2,29.7,30.01,NNE,22,1.1,-999.0,98,-99.99,,,0.00,Acu-Link.com,2013-10-09 07:57:00,
2013-10-09 01:13:00,30.2,29.7,30.01,East,90,0.0,-999.0,98,-99.99,,,0.00,Acu-Link.com,2013-10-09 08:13:00,
2013-10-09 01:28:00,30.2,29.7,30.02,South,180,0.0,-999.0,98,-99.99,,,0.00,Acu-Link.com,2013-10-09 08:28:00,
2013-10-09 01:43:00,30.2,29.7,30.02,NE,45,1.6,-999.0,98,-99.99,,,0.00,Acu-Link.com,2013-10-09 08:43:00,
2013-10-09 01:58:00,30.2,29.7,30.02,South,180,0.0,-999.0,98,-99.99,,,0.00,Acu-Link.com,2013-10-09 08:58:00,
2013-10-09 02:13:00,28.4,27.9,30.02,East,90,0.0,-999.0,98,-99.99,,,0.00,Acu-Link.com,2013-10-09 09:13:00,
2013-10-09 02:28:00,28.4,27.9,30.02,ENE,67,0.0,-999.0,98,-99.99,,,0.00,Acu-Link.com,2013-10-09 09:28:00,
2013-10-09 02:44:00,28.4,27.9,30.02,ESE,112,0.0,-999.0,98,-99.99,,,0.00,Acu-Link.com,2013-10-09 09:44:00,
2013-10-09 02:59:00,28.4,27.9,30.02,SE,135,0.0,-999.0,98,-99.99,,,0.00,Acu-Link.com,2013-10-09 09:59:00,
2013-10-09 03:14:00,28.4,27.9,30.00,SE,135,0.0,-999.0,98,-99.99,,,0.00,Acu-Link.com,2013-10-09 10:14:00,
2013-10-09 03:29:00,28.4,27.9,30.00,SE,135,0.0,-999.0,98,-99.99,,,0.00,Acu-Link.com,2013-10-09 10:29:00,
2013-10-09 03:44:00,28.4,27.9,30.00,SE,135,0.0,-999.0,98,-99.99,,,0.00,Acu-Link.com,2013-10-09 10:44:00,
2013-10-09 03:59:00,28.4,27.9,29.99,SE,135,0.0,-999.0,98,-99.99,,,0.00,Acu-Link.com,2013-10-09 10:59:00,
2013-10-09 04:14:00,28.4,27.9,29.99,SE,135,0.0,-999.0,98,-99.99,,,0.00,Acu-Link.com,2013-10-09 11:14:00,
2013-10-09 04:29:00,28.4,27.9,29.98,SE,135,0.0,-999.0,98,-99.99,,,0.00,Acu-Link.com,2013-10-09 11:29:00,
2013-10-09 04:44:00,28.4,27.9,29.98,ESE,112,0.0,-999.0,98,-99.99,,,0.00,Acu-Link.com,2013-10-09 11:44:00,
2013-10-09 04:59:00,30.2,29.7,29.98,ESE,112,1.1,-999.0,98,-99.99,,,0.00,Acu-Link.com,2013-10-09 11:59:00,
2013-10-09 05:15:00,30.2,29.7,29.98,SE,135,0.0,-999.0,98,-99.99,,,0.00,Acu-Link.com,2013-10-09 12:15:00,
2013-10-09 05:30:00,30.2,29.7,29.98,ESE,112,2.0,-999.0,98,-99.99,,,0.00,Acu-Link.com,2013-10-09 12:30:00,
2013-10-09 05:45:00,30.2,29.7,29.97,ESE,112,1.1,-999.0,98,-99.99,,,0.00,Acu-Link.com,2013-10-09 12:45:00,
2013-10-09 06:00:00,30.2,29.7,29.97,East,90,0.0,-999.0,98,-99.99,,,0.00,Acu-Link.com,2013-10-09 13:00:00,
2013-10-09 06:16:00,32.0,31.5,29.97,ENE,67,0.0,-999.0,98,-99.99,,,0.00,Acu-Link.com,2013-10-09 13:16:00,
2013-10-09 06:31:00,32.0,31.5,29.96,ESE,112,0.0,-999.0,98,-99.99,,,0.00,Acu-Link.com,2013-10-09 13:31:00,
2013-10-09 06:46:00,32.0,31.5,29.95,SE,135,0.0,-999.0,98,-99.99,,,0.00,Acu-Link.com,2013-10-09 13:46:00,
2013-10-09 07:01:00,32.0,31.5,29.95,ESE,112,0.0,-999.0,98,-99.99,,,0.00,Acu-Link.com,2013-10-09 14:01:00,
2013-10-09 07:17:00,32.0,31.5,29.94,SSW,202,0.0,-999.0,98,-99.99,,,0.00,Acu-Link.com,2013-10-09 14:17:00,
2013-10-09 07:32:00,32.0,31.5,29.93,South,180,0.0,-999.0,98,-99.99,,,0.00,Acu-Link.com,2013-10-09 14:32:00,
2013-10-09 07:47:00,32.0,31.5,29.92,ESE,112,0.0,-999.0,98,-99.99,,,0.00,Acu-Link.com,2013-10-09 14:47:00,
2013-10-09 08:02:00,32.0,31.5,29.92,ESE,112,1.1,-999.0,98,-99.99,,,0.00,Acu-Link.com,2013-10-09 15:02:00,
2013-10-09 08:17:00,32.0,31.5,29.93,ESE,112,0.0,-999.0,98,-99.99,,,0.00,Acu-Link.com,2013-10-09 15:17:00,
2013-10-09 08:33:00,32.0,31.5,29.93,ESE,112,1.6,-999.0,98,-99.99,,,0.00,Acu-Link.com,2013-10-09 15:33:00,
2013-10-09 08:48:00,32.0,31.5,29.92,ESE,112,2.7,-999.0,98,-99.99,,,0.00,Acu-Link.com,2013-10-09 15:48:00,
2013-10-09 09:03:00,33.8,33.3,29.91,SE,135,1.6,-999.0,98,-99.99,,,0.00,Acu-Link.com,2013-10-09 16:03:00,
2013-10-09 09:18:00,35.6,33.2,29.91,East,90,2.0,-999.0,91,-99.99,,,0.00,Acu-Link.com,2013-10-09 16:18:00,
2013-10-09 09:33:00,35.6,32.1,29.90,East,90,2.0,-999.0,87,-99.99,,,0.00,Acu-Link.com,2013-10-09 16:33:00,
2013-10-09 09:48:00,35.6,32.1,29.90,ESE,112,1.6,-999.0,87,-99.99,,,0.00,Acu-Link.com,2013-10-09 16:48:00,
2013-10-09 10:03:00,35.6,31.8,29.89,ESE,112,2.0,-999.0,86,-99.99,,,0.00,Acu-Link.com,2013-10-09 17:03:00,
2013-10-09 10:18:00,35.6,31.8,29.88,SE,135,2.0,-999.0,86,-99.99,,,0.00,Acu-Link.com,2013-10-09 17:18:00,
2013-10-09 10:34:00,37.4,33.0,29.87,ESE,112,1.1,-999.0,84,-99.99,,,0.00,Acu-Link.com,2013-10-09 17:34:00,
2013-10-09 10:49:00,39.2,34.2,29.87,SE,135,2.0,-999.0,82,-99.99,,,0.00,Acu-Link.com,2013-10-09 17:49:00,
2013-10-09 11:04:00,41.0,35.0,29.86,SSE,157,1.6,-999.0,79,-99.99,,,0.00,Acu-Link.com,2013-10-09 18:04:00,
2013-10-09 11:19:00,41.0,34.0,29.85,ESE,112,1.6,-999.0,76,-99.99,,,0.00,Acu-Link.com,2013-10-09 18:19:00,
2013-10-09 11:34:00,42.8,35.8,29.84,ESE,112,3.1,-999.0,76,-99.99,,,0.00,Acu-Link.com,2013-10-09 18:34:00,
2013-10-09 11:50:00,41.0,33.0,29.83,ESE,112,2.7,-999.0,73,-99.99,,,0.00,Acu-Link.com,2013-10-09 18:50:00,
2013-10-09 12:05:00,42.8,34.4,29.83,SSE,157,2.0,-999.0,72,-99.99,,,0.00,Acu-Link.com,2013-10-09 19:05:00,
2013-10-09 12:20:00,42.8,33.7,29.82,ESE,112,2.7,-999.0,70,-99.99,,,0.00,Acu-Link.com,2013-10-09 19:20:00,
2013-10-09 12:35:00,42.8,33.0,29.81,South,180,2.0,-999.0,68,-99.99,,,0.00,Acu-Link.com,2013-10-09 19:35:00,
2013-10-09 12:50:00,42.8,32.6,29.81,SSE,157,1.6,-999.0,67,-99.99,,,0.00,Acu-Link.com,2013-10-09 19:50:00,
2013-10-09 13:05:00,44.6,32.8,29.80,NE,45,2.7,-999.0,63,-99.99,,,0.00,Acu-Link.com,2013-10-09 20:05:00,
2013-10-09 13:21:00,46.4,34.1,29.78,East,90,4.7,-999.0,62,-99.99,,,0.00,Acu-Link.com,2013-10-09 20:21:00,
2013-10-09 13:36:00,46.4,34.1,29.79,ESE,112,2.7,-999.0,62,-99.99,,,0.00,Acu-Link.com,2013-10-09 20:36:00,
2013-10-09 13:51:00,44.6,32.4,29.78,ESE,112,2.0,-999.0,62,-99.99,,,0.00,Acu-Link.com,2013-10-09 20:51:00,
2013-10-09 14:06:00,44.6,32.0,29.78,ESE,112,2.0,-999.0,61,-99.99,,,0.00,Acu-Link.com,2013-10-09 21:06:00,
2013-10-09 14:21:00,46.4,33.3,29.77,ESE,112,2.7,-999.0,60,-99.99,,,0.00,Acu-Link.com,2013-10-09 21:21:00,
2013-10-09 14:36:00,46.4,32.9,29.76,ESE,112,2.7,-999.0,59,-99.99,,,0.00,Acu-Link.com,2013-10-09 21:36:00,
2013-10-09 14:51:00,46.4,32.9,29.75,SE,135,2.0,-999.0,59,-99.99,,,0.00,Acu-Link.com,2013-10-09 21:51:00,
2013-10-09 15:06:00,48.2,33.7,29.74,South,180,3.1,-999.0,57,-99.99,,,0.00,Acu-Link.com,2013-10-09 22:06:00,
2013-10-09 15:21:00,48.2,34.1,29.74,East,90,1.6,-999.0,58,-99.99,,,0.00,Acu-Link.com,2013-10-09 22:21:00,
2013-10-09 15:36:00,50.0,34.0,29.73,ESE,112,2.0,-999.0,54,-99.99,,,0.00,Acu-Link.com,2013-10-09 22:36:00,
2013-10-09 15:52:00,48.2,33.7,29.73,SE,135,2.7,-999.0,57,-99.99,,,0.00,Acu-Link.com,2013-10-09 22:52:00,
2013-10-09 16:07:00,46.4,32.4,29.72,SSE,157,2.7,-999.0,58,-99.99,,,0.00,Acu-Link.com,2013-10-09 23:07:00,
2013-10-09 16:22:00,48.2,33.2,29.72,ESE,112,2.7,-999.0,56,-99.99,,,0.00,Acu-Link.com,2013-10-09 23:22:00,
2013-10-09 16:37:00,50.0,34.0,29.70,NE,45,2.0,-999.0,54,-99.99,,,0.00,Acu-Link.com,2013-10-09 23:37:00,
2013-10-09 16:52:00,46.4,32.4,29.70,SSE,157,2.7,-999.0,58,-99.99,,,0.00,Acu-Link.com,2013-10-09 23:52:00,
2013-10-09 17:08:00,46.4,32.0,29.70,SE,135,0.0,-999.0,57,-99.99,,,0.00,Acu-Link.com,2013-10-10 00:08:00,
2013-10-09 17:23:00,46.4,32.9,29.70,ESE,112,1.6,-999.0,59,-99.99,,,0.00,Acu-Link.com,2013-10-10 00:23:00,
2013-10-09 17:38:00,46.4,34.1,29.71,ESE,112,2.0,-999.0,62,-99.99,,,0.00,Acu-Link.com,2013-10-10 00:38:00,
2013-10-09 17:54:00,44.6,33.2,29.70,ENE,67,1.1,-999.0,64,-99.99,,,0.00,Acu-Link.com,2013-10-10 00:54:00,
2013-10-09 18:09:00,44.6,33.6,29.71,ESE,112,1.6,-999.0,65,-99.99,,,0.00,Acu-Link.com,2013-10-10 01:09:00,
2013-10-09 18:24:00,44.6,35.8,29.70,East,90,2.0,-999.0,71,-99.99,,,0.00,Acu-Link.com,2013-10-10 01:24:00,
2013-10-09 18:39:00,42.8,34.8,29.70,NNW,337,0.0,-999.0,73,-99.99,,,0.00,Acu-Link.com,2013-10-10 01:39:00,
2013-10-09 18:55:00,42.8,36.4,29.70,ENE,67,1.6,-999.0,78,-99.99,,,0.00,Acu-Link.com,2013-10-10 01:55:00,
2013-10-09 19:10:00,42.8,37.7,29.71,NE,45,0.0,-999.0,82,-99.99,,,0.01,Acu-Link.com,2013-10-10 02:10:00,
2013-10-09 19:25:00,41.0,37.4,29.70,NE,45,0.0,-999.0,87,-99.99,,,0.02,Acu-Link.com,2013-10-10 02:25:00,
2013-10-09 19:40:00,41.0,38.0,29.70,East,90,0.0,-999.0,89,-99.99,,,0.05,Acu-Link.com,2013-10-10 02:40:00,
2013-10-09 19:55:00,41.0,38.3,29.70,East,90,0.0,-999.0,90,-99.99,,,0.05,Acu-Link.com,2013-10-10 02:55:00,
2013-10-09 20:10:00,41.0,38.3,29.69,East,90,1.6,-999.0,90,-99.99,,,0.05,Acu-Link.com,2013-10-10 03:10:00,
2013-10-09 20:25:00,41.0,38.3,29.69,East,90,0.0,-999.0,90,-99.99,,,0.05,Acu-Link.com,2013-10-10 03:25:00,
2013-10-09 20:41:00,41.0,38.3,29.69,East,90,1.1,-999.0,90,-99.99,,,0.05,Acu-Link.com,2013-10-10 03:41:00,
2013-10-09 20:56:00,41.0,38.3,29.69,ESE,112,1.6,-999.0,90,-99.99,,,0.05,Acu-Link.com,2013-10-10 03:56:00,
2013-10-09 21:11:00,41.0,38.3,29.69,ESE,112,0.0,-999.0,90,-99.99,,,0.05,Acu-Link.com,2013-10-10 04:11:00,
2013-10-09 21:26:00,41.0,38.3,29.68,South,180,0.0,-999.0,90,-99.99,,,0.05,Acu-Link.com,2013-10-10 04:26:00,
2013-10-09 21:42:00,39.2,36.5,29.68,ESE,112,0.0,-999.0,90,-99.99,,,0.05,Acu-Link.com,2013-10-10 04:42:00,
2013-10-09 21:57:00,39.2,36.5,29.68,NE,45,0.0,-999.0,90,-99.99,,,0.05,Acu-Link.com,2013-10-10 04:57:00,
2013-10-09 22:12:00,37.4,35.3,29.68,NE,45,0.0,-999.0,92,-99.99,,,0.05,Acu-Link.com,2013-10-10 05:12:00,
2013-10-09 22:27:00,37.4,35.0,29.68,NE,45,0.0,-999.0,91,-99.99,,,0.05,Acu-Link.com,2013-10-10 05:27:00,
2013-10-09 22:42:00,37.4,35.0,29.68,NE,45,0.0,-999.0,91,-99.99,,,0.05,Acu-Link.com,2013-10-10 05:42:00,
2013-10-09 22:58:00,37.4,34.7,29.68,NE,45,0.0,-999.0,90,-99.99,,,0.05,Acu-Link.com,2013-10-10 05:58:00,
2013-10-09 23:13:00,37.4,36.9,29.68,NE,45,0.0,-999.0,98,-99.99,,,0.05,Acu-Link.com,2013-10-10 06:13:00,
2013-10-09 23:30:00,35.6,35.1,29.68,NE,45,0.0,-999.0,98,-99.99,,,0.05,Acu-Link.com,2013-10-10 06:30:00,
2013-10-09 23:45:00,35.6,35.1,29.68,NE,45,0.0,-999.0,98,-99.99,,,0.05,Acu-Link.com,2013-10-10 06:45:00,